Flag for Vietnam Weather past 2 weeks in Hanoi, Vietnam

Now
77 °F

Broken clouds.


Feels Like: 79 °F
Forecast: 72 / 82 °F
Wind: 7 mph from Southeast

Location: Ha Noi Airport

Current Time: Mar 29, 2015 at 10:13:36 AM

Latest Report: Mar 29, 2015 at 9:30 AM


Visibility: 4 mi

Pressure: 29.98 "Hg

Humidity: 79%

Dew point: 70 °F

Location of HanoiLocation

Historic Weather in Hanoi — Graph

°F

Hanoi temperature yesterday

Maximum temperature yesterday: 81 °F (at 1:30 PM)
Minimum temperature yesterday: 70 °F (at 12:00 AM)
Average temperature yesterday: 74 °F

Past Weeks' High & Low Weather Summary

 TemperatureHumidityPressure
High86 °F (Mar 18, 1:30 PM)100% (Mar 14, 8:00 PM)30.24 "Hg (Mar 14, 8:00 PM)
Low64 °F (Mar 25, 7:00 AM)62% (Mar 18, 1:30 PM)29.62 "Hg (Mar 17, 3:00 PM)
Average74 °F86%29.96 "Hg
* Reported Mar 14 9:00 AM — Mar 29 9:00 AM, Hanoi, Weather by CustomWeather, © 2015

Note: Actual official high and low records may vary slightly from our data, if they occured in-between our weather recording intervals... More about our weather records

Advertising

Hanoi weather history for previous 24 hours

 ConditionsComfort  
Time TempWeatherWind HumidityBarometerVisibility
9:00 AM
Sun, Mar 29
75 °FBroken clouds.7 mph83%29.98 "Hg3 mi
8:30 AM73 °FBroken clouds.9 mph89%29.98 "Hg3 mi
8:00 AM73 °FBroken clouds.8 mph83%29.98 "Hg3 mi
7:30 AM72 °FFog.8 mph88%29.98 "Hg3 mi
7:00 AM72 °FFog.12 mph88%29.95 "Hg2 mi
6:30 AM72 °FFog.9 mph88%29.98 "Hg2 mi
6:00 AM72 °FFog.8 mph88%29.95 "Hg2 mi
5:30 AM72 °FFog.7 mph88%29.95 "Hg2 mi
5:00 AM72 °FFog.8 mph88%29.95 "Hg2 mi
4:30 AM72 °FFog.7 mph88%29.92 "Hg2 mi
4:00 AM72 °FFog.7 mph88%29.92 "Hg2 mi
3:30 AM72 °FFog.8 mph88%29.92 "Hg3 mi
3:00 AM72 °FFog.8 mph88%29.92 "Hg3 mi
2:30 AM72 °FFog.7 mph88%29.95 "Hg2 mi
2:00 AM72 °FFog.8 mph88%29.95 "Hg2 mi
1:30 AM72 °FFog.8 mph88%29.95 "Hg2 mi
1:00 AM72 °FFog.12 mph88%29.95 "Hg3 mi
12:30 AM72 °FPartly cloudy.10 mph88%29.98 "Hg3 mi
12:00 AM72 °FPartly cloudy.10 mph88%29.98 "Hg3 mi
11:30 PM
Sat, Mar 28
72 °FPartly cloudy.10 mph88%29.98 "Hg3 mi
11:00 PM72 °FPartly cloudy.12 mph88%29.98 "Hg4 mi
10:30 PM72 °FPartly cloudy.10 mph88%29.98 "Hg4 mi
10:00 PM72 °FPartly cloudy.10 mph83%29.98 "Hg5 mi
9:30 PM73 °FPassing clouds.13 mph78%29.98 "Hg6 mi
9:00 PM73 °FPassing clouds.9 mph83%29.98 "Hg5 mi
8:30 PM73 °FClear.13 mph83%29.95 "Hg6 mi
8:00 PM75 °FClear.14 mph78%29.95 "Hg6 mi
7:30 PM75 °FPassing clouds.10 mph78%29.95 "Hg6 mi
7:00 PM77 °FPassing clouds.12 mph74%29.92 "HgN/A
6:30 PM77 °FPassing clouds.10 mph74%29.92 "HgN/A
6:00 PM77 °FBroken clouds.10 mph74%29.92 "HgN/A
5:30 PM79 °FPassing clouds.12 mph70%29.92 "HgN/A
5:00 PM79 °FScattered clouds.12 mph70%29.92 "HgN/A
4:30 PM79 °FBroken clouds.14 mph70%29.92 "Hg6 mi
4:00 PM79 °FBroken clouds.12 mph70%29.92 "Hg4 mi
3:30 PM81 °FBroken clouds.9 mph66%29.92 "Hg5 mi
3:00 PM81 °FBroken clouds.9 mph66%29.95 "Hg5 mi
2:30 PM81 °FBroken clouds.7 mph66%29.95 "Hg5 mi
2:00 PM81 °FBroken clouds.8 mph70%29.98 "Hg4 mi
1:30 PM81 °FBroken clouds.7 mph70%30.01 "Hg3 mi
1:00 PM77 °FBroken clouds.7 mph74%30.01 "Hg3 mi
12:30 PM77 °FPartly sunny.6 mph69%30.04 "Hg4 mi
12:00 PM77 °FScattered clouds.7 mph74%30.04 "Hg3 mi
11:30 AM75 °FFog.8 mph78%30.07 "Hg3 mi
11:00 AM75 °FFog.7 mph78%30.09 "Hg2 mi
10:30 AM73 °FFog.9 mph83%30.09 "Hg2 mi
10:00 AM73 °FFog.6 mph83%30.09 "Hg2 mi
Weather by CustomWeather, © 2015

See weather overviewHow to use our weather pages